Location: Carrer del Canonge
(41.4901°N, 2.2931°E)
Time: 03:54:40
(UTC+00:00)

Cosmos 1844 - Pass Details

Date: 18 September 2020
Orbit: 824 x 866 km, 70.9° (Epoch: 25 October)

Event Time Altitude Azimuth Distance (km) Brightness Sun altitude
Rises 19:24:16 0° 181° (S) 3,415 6.7 -17.4°
Reaches altitude 10° 19:26:50 10° 175° (S) 2,477 5.9 -17.8°
Maximum altitude 19:32:08 41° 106° (ESE) 1,213 4.0 -18.8°
Drops below altitude 10° 19:37:23 10° 38° (NE) 2,466 5.9 -19.7°
Sets 19:39:56 0° 31° (NNE) 3,398 6.7 -20.1°
